Simultaneous Nadir Overpasses (SNOs) Predictions

Prediction of SNOs near US between NOAA-19 and NPP Satellite Orbit:

Table of predicted SNOs near US for the next 10.0 days since TLE Epoch: 3/2/2013
Index Date (NOAA-19) Time (NOAA-19) NOAA-19 Lat,Lon Date (NPP) Time (NPP) NPP Lat,Lon Distance(km) Time Diff (sec)
1 03/06/2013 19:17:47 47.95, -95.34 03/06/2013 19:18:22 47.33, -98.27 229.95 35
2 03/06/2013 21:00:25 49.92,-121.72 03/06/2013 21:00:26 49.35,-124.50 209.60 1
3 03/07/2013 07:38:45 37.70, -83.73 03/07/2013 07:35:11 38.16, -86.01 206.55 214
4 03/07/2013 09:21:24 35.72,-109.88 03/07/2013 09:17:16 36.13,-112.03 198.81 248
5 03/07/2013 19:07:27 49.95, -93.49 03/07/2013 19:00:03 49.76, -94.55 79.07 444
6 03/07/2013 20:49:32 49.97,-119.02 03/07/2013 20:41:34 49.82,-119.95 69.12 478
